RYO44R CYDF-CYHZ

Flight info

Callsign RYO44R
Flight time 0h 45m
Altitude 32000
Route CAYLY CABOT5
Aircraft B738/M-SDE2E3FGHIRWXY/LB1

Departure

Time 2026-04-26 07:18
Airport Deer Lake Airport (CYDF)

Arrival

Time 2026-04-26 08:03
Airport Halifax / Stanfield International Airport (CYHZ)
Time Latitude Longitude Altitude Speed Heading
2026-04-26 06:59 49.20946 -57.39856 64 ft 0 kts 25°
2026-04-26 07:14 49.20949 -57.39852 64 ft 2 kts 41°
2026-04-26 07:14 49.20943 -57.39826 64 ft 5 kts 146°
2026-04-26 07:14 49.20892 -57.39851 64 ft 12 kts 212°
2026-04-26 07:14 49.20814 -57.39837 63 ft 13 kts 139°
2026-04-26 07:15 49.20745 -57.39758 63 ft 12 kts 172°
2026-04-26 07:15 49.20669 -57.39844 62 ft 20 kts 226°
2026-04-26 07:15 49.20551 -57.40035 56 ft 26 kts 227°
2026-04-26 07:15 49.20432 -57.40219 54 ft 24 kts 226°
2026-04-26 07:16 49.20322 -57.40395 57 ft 23 kts 227°
2026-04-26 07:16 49.20219 -57.40572 54 ft 22 kts 236°
2026-04-26 07:16 49.20151 -57.40776 52 ft 21 kts 235°
2026-04-26 07:16 49.20085 -57.40754 52 ft 13 kts 76°
2026-04-26 07:17 49.20150 -57.40672 52 ft 13 kts 44°
2026-04-26 07:17 49.20164 -57.40650 52 ft 0 kts 46°
2026-04-26 07:17 49.20170 -57.40641 53 ft 12 kts 46°
2026-04-26 07:17 49.20415 -57.40250 59 ft 89 kts 46°
2026-04-26 07:18 49.21002 -57.39317 72 ft 152 kts 45°
2026-04-26 07:18 49.21786 -57.38064 602 ft 165 kts 46°
2026-04-26 07:18 49.22562 -57.36773 1495 ft 163 kts 46°
2026-04-26 07:18 49.23371 -57.35427 2000 ft 187 kts 46°
2026-04-26 07:19 49.24296 -57.33866 2205 ft 212 kts 47°
2026-04-26 07:19 49.25352 -57.32084 2319 ft 236 kts 46°
2026-04-26 07:19 49.26538 -57.30130 2408 ft 266 kts 43°
2026-04-26 07:19 49.27795 -57.28020 3224 ft 255 kts 45°
2026-04-26 07:20 49.28842 -57.26042 4651 ft 231 kts 46°
2026-04-26 07:20 49.29841 -57.24102 5299 ft 234 kts 46°
2026-04-26 07:20 49.30846 -57.22145 5965 ft 235 kts 49°
2026-04-26 07:20 49.31483 -57.19823 6624 ft 252 kts 76°
2026-04-26 07:21 49.31270 -57.17092 7374 ft 271 kts 102°
2026-04-26 07:21 49.30198 -57.14585 7949 ft 295 kts 129°
2026-04-26 07:21 49.28407 -57.12900 8598 ft 312 kts 156°
2026-04-26 07:21 49.26228 -57.12443 9260 ft 323 kts 182°
2026-04-26 07:22 49.24047 -57.13340 9873 ft 329 kts 209°
2026-04-26 07:22 49.22222 -57.15439 10435 ft 333 kts 229°
2026-04-26 07:22 49.20585 -57.18096 10604 ft 354 kts 230°
2026-04-26 07:22 49.18855 -57.20902 10974 ft 368 kts 230°
2026-04-26 07:23 49.17089 -57.23771 11588 ft 372 kts 230°
2026-04-26 07:23 49.15310 -57.26660 12305 ft 374 kts 230°
2026-04-26 07:23 49.13523 -57.29564 12993 ft 377 kts 230°
2026-04-26 07:23 49.11712 -57.32507 13640 ft 381 kts 230°
2026-04-26 07:24 49.09893 -57.35466 14337 ft 384 kts 230°
2026-04-26 07:24 49.08057 -57.38453 15033 ft 387 kts 230°
2026-04-26 07:24 49.06208 -57.41464 15728 ft 390 kts 230°
2026-04-26 07:24 49.02904 -57.46848 16887 ft 395 kts 230°
2026-04-26 07:25 48.99119 -57.53026 18154 ft 401 kts 230°
2026-04-26 07:25 48.95284 -57.59293 19296 ft 408 kts 230°
2026-04-26 07:25 48.91391 -57.65665 20449 ft 414 kts 230°
2026-04-26 07:25 48.87441 -57.72133 21517 ft 420 kts 230°
2026-04-26 07:26 48.83443 -57.78685 22518 ft 426 kts 230°
2026-04-26 07:26 48.79398 -57.85319 23495 ft 431 kts 230°
2026-04-26 07:26 48.75306 -57.92027 24452 ft 435 kts 230°
2026-04-26 07:26 48.71178 -57.98793 25308 ft 440 kts 229°
2026-04-26 07:27 48.67014 -58.05621 26066 ft 446 kts 229°
2026-04-26 07:27 48.62776 -58.12573 26796 ft 451 kts 229°
2026-04-26 07:27 48.58553 -58.19496 27512 ft 456 kts 229°
2026-04-26 07:27 48.54560 -58.26045 28168 ft 458 kts 230°
2026-04-26 07:28 48.52684 -58.29899 28608 ft 454 kts 242°
2026-04-26 07:28 48.51183 -58.34121 29101 ft 450 kts 246°
2026-04-26 07:28 48.49631 -58.38987 29551 ft 450 kts 245°
2026-04-26 07:28 48.48119 -58.43133 29880 ft 453 kts 240°
2026-04-26 07:29 48.46337 -58.47064 30182 ft 456 kts 234°
2026-04-26 07:29 48.44318 -58.50751 30567 ft 456 kts 229°
2026-04-26 07:29 48.42150 -58.54224 30997 ft 455 kts 226°
2026-04-26 07:29 48.39897 -58.57556 31416 ft 453 kts 225°
2026-04-26 07:30 48.37607 -58.60807 31753 ft 453 kts 224°
2026-04-26 07:30 48.31235 -58.69693 31830 ft 463 kts 224°
2026-04-26 07:31 48.21871 -58.82843 31798 ft 455 kts 224°
2026-04-26 07:31 48.12772 -58.95619 31817 ft 446 kts 224°
2026-04-26 07:32 48.03628 -59.08398 31853 ft 456 kts 224°
2026-04-26 07:32 47.94279 -59.21391 31835 ft 458 kts 224°
2026-04-26 07:33 47.85140 -59.34021 31806 ft 439 kts 224°
2026-04-26 07:33 47.76151 -59.46393 31847 ft 443 kts 224°
2026-04-26 07:34 47.66955 -59.58985 31850 ft 454 kts 224°
2026-04-26 07:34 47.57691 -59.71600 31825 ft 447 kts 224°
2026-04-26 07:35 47.48695 -59.83791 31851 ft 439 kts 224°
2026-04-26 07:35 47.39607 -59.96053 31865 ft 448 kts 224°
2026-04-26 07:36 47.30300 -60.08542 31870 ft 455 kts 224°
2026-04-26 07:36 47.21024 -60.20928 31888 ft 443 kts 225°
2026-04-26 07:37 47.11927 -60.33016 31918 ft 440 kts 225°
2026-04-26 07:37 47.02732 -60.45185 31927 ft 450 kts 225°
2026-04-26 07:38 46.93366 -60.57507 31893 ft 451 kts 225°
2026-04-26 07:38 46.84157 -60.69560 31892 ft 438 kts 225°
2026-04-26 07:39 46.75054 -60.81438 31927 ft 444 kts 225°
2026-04-26 07:39 46.65764 -60.93493 31922 ft 453 kts 225°
2026-04-26 07:40 46.56413 -61.05556 31894 ft 441 kts 225°
2026-04-26 07:40 46.47867 -61.16538 31924 ft 437 kts 225°
2026-04-26 07:41 46.38669 -61.28316 31953 ft 447 kts 225°
2026-04-26 07:41 46.29269 -61.40283 31937 ft 450 kts 225°
2026-04-26 07:42 46.22774 -61.48506 31960 ft 425 kts 226°
2026-04-26 07:42 46.18401 -61.54031 31975 ft 414 kts 226°
2026-04-26 07:42 46.14087 -61.59482 31645 ft 409 kts 226°
2026-04-26 07:42 46.09846 -61.64825 30973 ft 403 kts 226°
2026-04-26 07:43 46.05649 -61.70101 30272 ft 398 kts 226°
2026-04-26 07:43 46.01495 -61.75311 29561 ft 394 kts 226°
2026-04-26 07:43 45.97387 -61.80452 28829 ft 390 kts 227°
2026-04-26 07:43 45.93310 -61.85544 28102 ft 386 kts 227°
2026-04-26 07:44 45.89288 -61.90558 27368 ft 382 kts 227°
2026-04-26 07:44 45.85289 -61.95531 26653 ft 378 kts 227°
2026-04-26 07:44 45.81326 -62.00454 25930 ft 375 kts 227°
2026-04-26 07:44 45.77394 -62.05326 25219 ft 371 kts 227°
2026-04-26 07:45 45.73560 -62.10070 24534 ft 368 kts 227°
2026-04-26 07:45 45.69706 -62.14830 23830 ft 364 kts 227°
2026-04-26 07:45 45.65886 -62.19539 23134 ft 361 kts 227°
2026-04-26 07:45 45.62573 -62.23613 22532 ft 358 kts 227°
2026-04-26 07:46 45.60749 -62.26005 22138 ft 356 kts 230°
2026-04-26 07:46 45.57513 -62.30651 21499 ft 352 kts 232°
2026-04-26 07:46 45.54106 -62.35630 20831 ft 348 kts 232°
2026-04-26 07:46 45.50726 -62.40526 20167 ft 345 kts 232°
2026-04-26 07:47 45.47374 -62.45348 19518 ft 341 kts 231°
2026-04-26 07:47 45.44047 -62.50116 18867 ft 338 kts 231°
2026-04-26 07:47 45.40748 -62.54829 18220 ft 334 kts 231°
2026-04-26 07:47 45.37478 -62.59493 17590 ft 331 kts 231°
2026-04-26 07:48 45.35331 -62.62552 17170 ft 329 kts 231°
2026-04-26 07:48 45.32112 -62.67131 16537 ft 326 kts 231°
2026-04-26 07:48 45.28908 -62.71679 15893 ft 323 kts 231°
2026-04-26 07:48 45.25737 -62.76174 15264 ft 321 kts 230°
2026-04-26 07:49 45.22578 -62.80641 14643 ft 319 kts 230°
2026-04-26 07:49 45.19447 -62.85066 14016 ft 316 kts 230°
2026-04-26 07:49 45.16336 -62.89452 13393 ft 313 kts 230°
2026-04-26 07:50 45.10201 -62.98083 12167 ft 309 kts 230°
2026-04-26 07:50 45.07156 -63.02357 11550 ft 306 kts 230°
2026-04-26 07:50 45.04144 -63.06582 10950 ft 304 kts 229°
2026-04-26 07:50 45.01410 -63.10405 10399 ft 302 kts 229°
2026-04-26 07:51 44.99922 -63.12487 10127 ft 299 kts 229°
2026-04-26 07:51 44.98447 -63.14530 9975 ft 295 kts 229°
2026-04-26 07:51 44.96984 -63.16560 9679 ft 293 kts 229°
2026-04-26 07:51 44.95541 -63.18575 9391 ft 290 kts 230°
2026-04-26 07:52 44.94114 -63.20575 9111 ft 288 kts 229°
2026-04-26 07:52 44.92687 -63.22549 8832 ft 286 kts 229°
2026-04-26 07:52 44.91271 -63.24498 8547 ft 282 kts 230°
2026-04-26 07:52 44.89893 -63.26430 8285 ft 278 kts 230°
2026-04-26 07:53 44.88528 -63.28341 8010 ft 276 kts 230°
2026-04-26 07:53 44.87173 -63.30235 7750 ft 273 kts 230°
2026-04-26 07:53 44.85824 -63.32115 7483 ft 272 kts 230°
2026-04-26 07:53 44.84484 -63.33975 7230 ft 271 kts 230°
2026-04-26 07:54 44.83143 -63.35830 6973 ft 270 kts 230°
2026-04-26 07:54 44.81824 -63.37657 6706 ft 269 kts 230°
2026-04-26 07:54 44.80494 -63.39496 6436 ft 266 kts 230°
2026-04-26 07:54 44.79187 -63.41300 6179 ft 260 kts 230°
2026-04-26 07:55 44.77918 -63.43053 5946 ft 252 kts 230°
2026-04-26 07:55 44.76682 -63.44757 5717 ft 244 kts 230°
2026-04-26 07:55 44.75506 -63.46376 5534 ft 229 kts 230°
2026-04-26 07:55 44.74372 -63.47863 5375 ft 218 kts 231°
2026-04-26 07:56 44.73311 -63.49350 5292 ft 214 kts 232°
2026-04-26 07:56 44.72256 -63.50833 5199 ft 213 kts 231°
2026-04-26 07:56 44.71225 -63.52265 5090 ft 204 kts 231°
2026-04-26 07:56 44.70236 -63.53624 5000 ft 192 kts 231°
2026-04-26 07:57 44.69294 -63.54925 4949 ft 189 kts 232°
2026-04-26 07:57 44.68629 -63.56469 4779 ft 182 kts 269°
2026-04-26 07:57 44.68797 -63.58119 4673 ft 167 kts 303°
2026-04-26 07:57 44.69404 -63.59496 4492 ft 166 kts 310°
2026-04-26 07:58 44.70066 -63.60822 4290 ft 165 kts 311°
2026-04-26 07:58 44.70724 -63.62134 4084 ft 162 kts 311°
2026-04-26 07:58 44.71364 -63.63413 3895 ft 157 kts 311°
2026-04-26 07:58 44.72013 -63.64646 3706 ft 154 kts 321°
2026-04-26 07:59 44.72939 -63.65267 3555 ft 148 kts 352°
2026-04-26 07:59 44.73962 -63.65026 3368 ft 156 kts 26°
2026-04-26 07:59 44.74870 -63.64151 3197 ft 158 kts 28°
2026-04-26 07:59 44.75759 -63.63308 2977 ft 149 kts 29°
2026-04-26 08:00 44.76579 -63.62512 2822 ft 142 kts 31°
2026-04-26 08:00 44.77373 -63.61734 2632 ft 141 kts 28°
2026-04-26 08:00 44.78183 -63.60954 2451 ft 141 kts 29°
2026-04-26 08:00 44.78996 -63.60162 2301 ft 142 kts 29°
2026-04-26 08:01 44.79819 -63.59360 2060 ft 144 kts 30°
2026-04-26 08:01 44.80649 -63.58546 1876 ft 147 kts 31°
2026-04-26 08:01 44.81488 -63.57724 1670 ft 146 kts 31°
2026-04-26 08:01 44.82328 -63.56900 1472 ft 148 kts 32°
2026-04-26 08:02 44.83181 -63.56061 1279 ft 151 kts 32°
2026-04-26 08:02 44.84036 -63.55218 1078 ft 149 kts 32°
2026-04-26 08:02 44.84884 -63.54382 875 ft 148 kts 32°
2026-04-26 08:02 44.85731 -63.53544 680 ft 149 kts 33°
2026-04-26 08:03 44.86587 -63.52703 490 ft 150 kts 33°
2026-04-26 08:03 44.87407 -63.51897 455 ft 131 kts 35°
2026-04-26 08:03 44.87990 -63.51329 455 ft 70 kts 34°
2026-04-26 08:03 44.88227 -63.51100 454 ft 23 kts 34°
2026-04-26 08:04 44.88323 -63.51069 452 ft 15 kts 321°
2026-04-26 08:04 44.88390 -63.51169 454 ft 12 kts 317°
2026-04-26 08:04 44.88467 -63.51208 454 ft 12 kts 346°
2026-04-26 08:04 44.88546 -63.51227 452 ft 11 kts 350°
2026-04-26 08:05 44.88623 -63.51246 453 ft 11 kts 350°
2026-04-26 08:05 44.88667 -63.51256 452 ft 2 kts 350°
2026-04-26 08:05 44.88684 -63.51261 452 ft 3 kts 350°
2026-04-26 08:05 44.88703 -63.51265 452 ft 3 kts 350°
2026-04-26 08:06 44.88714 -63.51269 452 ft 0 kts 342°